Port Angeles, WA

12:19 PM PDT on March 27, 2017 (GMT -0700)
Fairchild International

Weather History for KCLM - January, 2013

Change the Weather History Date:

Tuesday, January 8, 2013

  Actual Average Record
Temperature  
Mean Temperature 44 °F -  
Max Temperature 48 °F 44 °F 64 °F (1986)
Min Temperature 39 °F 33 °F 15 °F (1973)
Degree Days  
Heating Degree Days 22    
Moisture  
Dew Point 39 °F    
Average Humidity 87    
Maximum Humidity 100    
Minimum Humidity 68    
Precipitation  
Precipitation 0.90 in - - ()
Sea Level Pressure  
Sea Level Pressure 29.87 in    
Wind  
Wind Speed 4 mph (South)    
Max Wind Speed 9 mph    
Max Gust Speed -    
Visibility 8 miles    
Events Rain    
Averages and records for this station are not official NWS values.
T = Trace of Precipitation, MM = Missing Value Source: NWS Daily Summary

Daily Weather History Graph

Daily Weather History Graph

Search for Another Location

Airport or City:

Trip Planner

Search our weather history database for the weather conditions in past years. The results will help you decide how hot, cold, wet, or windy it might be!

Date:

Astronomy

Jan. 08, 2013 Rise Set
Actual Time 8:02 AM PST 4:39 PM PST
Civil Twilight 7:27 AM PST 5:15 PM PST
Nautical Twilight 6:47 AM PST 5:54 PM PST
Astronomical Twilight 6:10 AM PST 6:31 PM PST
Moon 4:41 AM PST (1/8) 1:47 PM PST (1/8)
Length of Visible Light 9h 47m
Length of Day
8h 36m
Waning Crescent, 13% of the Moon is Illuminated
Jan 8
Waning Crescent
Jan 11
New
Jan 18
First Quarter
Jan 26
Full
Feb 3
Last Quarter

Hourly Weather History & Observations

Time (PST) Temp. Windchill Dew Point Humidity Pressure Visibility Wind Dir Wind Speed Gust Speed Precip Events Conditions
12:23 AM 44.1 °F 41.5 °F 34.0 °F 68% 30.13 in 10.0 mi SW 4.6 mph - N/A   Mostly Cloudy
12:33 AM 43.0 °F 38.8 °F 34.0 °F 71% 30.13 in 10.0 mi WSW 6.9 mph - N/A   Mostly Cloudy
12:53 AM 43.0 °F - 34.0 °F 71% 30.14 in 10.0 mi Calm Calm - N/A   Mostly Cloudy
1:21 AM 41.0 °F 39.0 °F 35.1 °F 79% 30.13 in 10.0 mi South 3.5 mph - N/A   Overcast
1:53 AM 41.0 °F - 36.0 °F 82% 30.13 in 10.0 mi Calm Calm - N/A   Overcast
2:53 AM 42.1 °F 40.2 °F 37.0 °F 82% 30.14 in 10.0 mi SSW 3.5 mph - N/A   Overcast
3:53 AM 44.1 °F 39.0 °F 39.0 °F 82% 30.11 in 10.0 mi East 9.2 mph - N/A   Overcast
4:06 AM 44.1 °F 40.1 °F 39.9 °F 85% 30.10 in 10.0 mi SSE 6.9 mph - N/A   Overcast
4:53 AM 44.1 °F - 37.9 °F 79% 30.09 in 10.0 mi Calm Calm - N/A   Overcast
5:04 AM 43.0 °F 39.5 °F 35.1 °F 74% 30.09 in 10.0 mi WSW 5.8 mph - N/A   Overcast
5:53 AM 42.1 °F - 36.0 °F 79% 30.06 in 10.0 mi Calm Calm - 0.00 in Rain Light Rain
6:53 AM 43.0 °F 38.8 °F 34.0 °F 71% 30.02 in 10.0 mi ESE 6.9 mph - 0.00 in   Overcast
7:53 AM 42.1 °F 40.2 °F 35.1 °F 76% 29.99 in 10.0 mi ESE 3.5 mph - 0.00 in Rain Light Rain
8:06 AM 42.1 °F - 35.1 °F 76% 29.98 in 10.0 mi Calm Calm - 0.00 in Rain Light Rain
8:51 AM 39.2 °F 37.0 °F 37.4 °F 93% 29.96 in 5.0 mi WSW 3.5 mph - 0.04 in Rain Rain
8:53 AM 39.9 °F - 37.0 °F 89% 29.96 in 6.0 mi Calm Calm - 0.04 in Rain Light Rain
9:10 AM 39.0 °F 35.7 °F 37.0 °F 93% 29.94 in 5.0 mi WSW 4.6 mph - 0.01 in Rain Rain
9:53 AM 39.0 °F 34.8 °F 37.0 °F 93% 29.92 in 5.0 mi WSW 5.8 mph - 0.03 in Rain Rain
10:06 AM 39.2 °F 37.0 °F 37.4 °F 93% 29.91 in 4.0 mi WSW 3.5 mph - N/A Rain Rain
10:53 AM 39.0 °F 36.8 °F 37.0 °F 93% 29.89 in 10.0 mi West 3.5 mph - 0.04 in Rain Light Rain
11:53 AM 39.0 °F - 37.0 °F 93% 29.86 in 8.0 mi Calm Calm - 0.02 in Rain Light Rain
12:53 PM 41.0 °F - 39.0 °F 93% 29.83 in 10.0 mi Calm Calm - 0.01 in Rain Light Rain
1:29 PM 42.1 °F 38.4 °F 39.0 °F 89% 29.80 in 10.0 mi East 5.8 mph - 0.00 in   Overcast
1:53 PM 42.1 °F 38.4 °F 39.0 °F 89% 29.78 in 10.0 mi East 5.8 mph - 0.00 in Rain Light Rain
2:53 PM 42.1 °F 37.1 °F 39.0 °F 89% 29.73 in 10.0 mi SE 8.1 mph - 0.01 in Rain Light Rain
3:53 PM 42.1 °F 39.2 °F 39.9 °F 92% 29.68 in 5.0 mi NNE 4.6 mph - 0.00 in Rain Light Rain
4:25 PM 42.1 °F 39.2 °F 41.0 °F 96% 29.67 in 5.0 mi NNW 4.6 mph - 0.00 in Rain Light Rain
4:53 PM 42.1 °F - 39.9 °F 92% 29.69 in 8.0 mi Calm Calm - 0.01 in Rain Light Rain
5:53 PM 42.1 °F - 41.0 °F 96% 29.65 in 7.0 mi Calm Calm - 0.01 in Rain Light Rain
6:12 PM 42.1 °F 39.2 °F 41.0 °F 96% 29.64 in 6.0 mi Variable 4.6 mph - 0.00 in Rain Light Rain
6:53 PM 43.0 °F 39.5 °F 41.0 °F 93% 29.64 in 6.0 mi Variable 5.8 mph - 0.01 in Rain Light Rain
7:30 PM 43.0 °F 38.8 °F 41.0 °F 93% 29.63 in 5.0 mi SSE 6.9 mph - 0.04 in Rain Rain
7:53 PM 44.1 °F 41.5 °F 42.1 °F 93% 29.64 in 6.0 mi SE 4.6 mph - 0.08 in Rain Rain
8:53 PM 44.6 °F 40.7 °F 44.6 °F 100% 29.63 in 4.0 mi SSE 6.9 mph - N/A Rain Rain
9:53 PM 46.0 °F - 45.0 °F 96% 29.64 in 4.0 mi Calm Calm - 0.19 in Rain Rain
10:53 PM 46.9 °F - 45.0 °F 93% 29.65 in 4.0 mi ESE 5.8 mph - 0.22 in Rain Rain
11:29 PM 48.0 °F - 46.0 °F 93% 29.67 in 4.0 mi North - - 0.15 in Rain Rain
11:37 PM 46.9 °F - 46.0 °F 97% 29.67 in 3.0 mi NW 4.6 mph - 0.18 in Rain Heavy Rain
11:53 PM 46.9 °F - 46.0 °F 97% 29.69 in 5.0 mi North 4.6 mph - 0.23 in Rain Light Rain